| time (UTC) | temp F | wind direction | speed MPH | gust MPH | rain 1hr in | rain 24hr in | rain mn in | humidity % | barometer mb |
| 20260904094649 | 67 | 134 | 0.0 | 2.0 | 0.00 | 1.05 | 0.00 | 96 | 1007.9 |
| 20260904093147 | 67 | 179 | 0.0 | 2.0 | 0.00 | 1.05 | 0.00 | 96 | 1008.1 |
| 20260904091522 | 67 | 179 | 0.0 | 2.0 | 0.00 | 1.05 | 0.00 | 96 | 1008.1 |
| 20260904090052 | 67 | 158 | 0.0 | 2.0 | 0.00 | 1.05 | 0.00 | 96 | 1008.0 |
| 20260904084601 | 67 | 158 | 0.0 | 2.0 | 0.00 | 1.05 | 0.00 | 96 | 1007.7 |
| 20260904083139 | 67 | 52 | 0.0 | 2.0 | 0.00 | 1.05 | 0.00 | 96 | 1007.7 |
| 20260904081636 | 67 | 101 | 0.0 | 3.0 | 0.00 | 1.05 | 0.00 | 96 | 1007.5 |
| 20260904080014 | 67 | 360 | 0.0 | 2.0 | 0.00 | 1.05 | 0.00 | 96 | 1007.7 |
| 20260904074603 | 67 | 360 | 0.0 | 0.0 | 0.00 | 1.05 | 0.00 | 96 | 1007.9 |
| 20260904073136 | 68 | 360 | 0.0 | 2.0 | 0.00 | 1.05 | 0.00 | 96 | 1008.0 |
| 20260904071547 | 68 | 360 | 0.0 | 2.0 | 0.00 | 1.05 | 0.00 | 96 | 1008.2 |
| 20260904070116 | 68 | 360 | 0.0 | 0.0 | 0.00 | 1.05 | 0.00 | 96 | 1008.1 |
| 20260904064531 | 68 | 360 | 0.0 | 2.0 | 0.00 | 1.05 | 0.00 | 95 | 1008.1 |
| 20260904063055 | 68 | 296 | 0.0 | 0.0 | 0.00 | 1.05 | 0.00 | 95 | 1008.2 |
| 20260904061535 | 68 | 296 | 0.0 | 2.0 | 0.00 | 1.05 | 0.00 | 95 | 1008.3 |
| 20260904060053 | 68 | 360 | 0.0 | 2.0 | 0.00 | 1.05 | 0.00 | 95 | 1008.2 |
| 20260904054636 | 68 | 338 | 0.0 | 2.0 | 0.00 | 1.05 | 0.00 | 95 | 1008.3 |
| 20260904053017 | 68 | 337 | 1.0 | 6.0 | 0.00 | 1.05 | 0.00 | 95 | 1008.2 |
| 20260904051627 | 68 | 206 | 0.0 | 2.0 | 0.00 | 1.05 | 0.00 | 94 | 1008.0 |
| 20260904050028 | 68 | 163 | 1.0 | 2.0 | 0.00 | 1.05 | 0.00 | 94 | 1008.0 |
| 20260904044559 | 69 | 134 | 2.0 | 4.0 | 0.00 | 1.05 | 0.00 | 94 | 1008.1 |
| 20260904043110 | 69 | 140 | 2.0 | 4.0 | 0.00 | 1.05 | 0.00 | 94 | 1008.1 |
| 20260904041507 | 69 | 145 | 2.0 | 5.0 | 0.00 | 1.05 | 0.00 | 94 | 1008.0 |
| 20260904040050 | 69 | 137 | 2.0 | 4.0 | 0.00 | 1.05 | 0.00 | 94 | 1008.0 |
| 20260904034639 | 69 | 139 | 3.0 | 5.0 | 0.00 | 1.05 | 1.05 | 94 | 1007.9 |
| 20260904033020 | 69 | 34 | 0.0 | 2.0 | 0.00 | 1.05 | 1.05 | 95 | 1007.9 |
| 20260904031545 | 68 | 143 | 1.0 | 3.0 | 0.00 | 1.05 | 1.05 | 94 | 1007.7 |
| 20260904030110 | 69 | 195 | 2.0 | 6.0 | 0.00 | 1.05 | 1.05 | 94 | 1007.6 |
| 20260904024643 | 69 | 144 | 2.0 | 5.0 | 0.00 | 1.05 | 1.05 | 94 | 1007.6 |
| 20260904023039 | 69 | 152 | 2.0 | 5.0 | 0.00 | 1.05 | 1.05 | 94 | 1007.6 |
| 20260904021606 | 69 | 157 | 2.0 | 7.0 | 0.00 | 1.05 | 1.05 | 94 | 1007.4 |
| 20260904020145 | 69 | 157 | 2.0 | 5.0 | 0.00 | 1.05 | 1.05 | 94 | 1007.4 |
| 20260904014506 | 69 | 155 | 3.0 | 7.0 | 0.00 | 1.05 | 1.05 | 95 | 1007.3 |
| 20260904013049 | 69 | 151 | 2.0 | 8.0 | 0.00 | 1.05 | 1.05 | 95 | 1007.1 |
| 20260904011610 | 69 | 146 | 2.0 | 3.0 | 0.00 | 1.05 | 1.05 | 95 | 1007.3 |
| 20260904010148 | 69 | 138 | 3.0 | 5.0 | 0.00 | 1.05 | 1.05 | 94 | 1007.2 |
| 20260904004519 | 69 | 157 | 1.0 | 4.0 | 0.00 | 1.05 | 1.05 | 94 | 1007.4 |
| 20260904003048 | 69 | 155 | 1.0 | 5.0 | 0.00 | 1.05 | 1.05 | 94 | 1007.8 |
| 20260904001619 | 69 | 153 | 1.0 | 5.0 | 0.04 | 1.05 | 1.05 | 94 | 1007.9 |
| 20260904000032 | 69 | 126 | 3.0 | 7.0 | 0.05 | 1.05 | 1.05 | 94 | 1007.8 |
| 20260903234623 | 69 | 105 | 2.0 | 7.0 | 0.15 | 1.05 | 1.05 | 94 | 1007.9 |
| 20260903233049 | 69 | 44 | 1.0 | 4.0 | 0.31 | 1.05 | 1.05 | 94 | 1008.4 |
| 20260903231614 | 69 | 42 | 3.0 | 7.0 | 0.77 | 1.01 | 1.01 | 94 | 1008.4 |
| 20260903230149 | 69 | 40 | 4.0 | 11.0 | 0.76 | 1.00 | 1.00 | 93 | 1008.4 |
| 20260903224548 | 70 | 26 | 0.0 | 4.0 | 0.66 | 0.90 | 0.90 | 93 | 1009.7 |
| 20260903223017 | 70 | 246 | 2.0 | 10.0 | 0.47 | 0.71 | 0.71 | 91 | 1009.3 |
| 20260903221607 | 72 | 30 | 4.0 | 14.0 | 0.00 | 0.24 | 0.24 | 87 | 1007.9 |
| 20260903220021 | 81 | 283 | 4.0 | 10.0 | 0.00 | 0.24 | 0.24 | 85 | 1007.2 |
| 20260903214600 | 81 | 17 | 1.0 | 4.0 | 0.00 | 0.24 | 0.24 | 88 | 1005.7 |
| 20260903213136 | 82 | 30 | 0.0 | 2.0 | 0.00 | 0.24 | 0.24 | 87 | 1006.0 |
| 20260903211506 | 83 | 313 | 0.0 | 2.0 | 0.00 | 0.24 | 0.24 | 84 | 1006.2 |
| 20260903204606 | 84 | 298 | 1.0 | 6.0 | 0.00 | 0.24 | 0.24 | 79 | 1005.1 |
| 20260903203140 | 86 | 15 | 2.0 | 5.0 | 0.00 | 0.24 | 0.24 | 78 | 1004.8 |
| 20260903201534 | 88 | 38 | 1.0 | 4.0 | 0.00 | 0.24 | 0.24 | 75 | 1004.7 |
| 20260903200048 | 90 | 250 | 1.0 | 8.0 | 0.00 | 0.24 | 0.24 | 69 | 1004.7 |
| 20260903194635 | 92 | 259 | 3.0 | 10.0 | 0.00 | 0.24 | 0.24 | 63 | 1005.1 |
| 20260903193002 | 92 | 261 | 5.0 | 12.0 | 0.00 | 0.24 | 0.24 | 61 | 1005.7 |
| 20260903191550 | 91 | 223 | 3.0 | 7.0 | 0.00 | 0.24 | 0.24 | 63 | 1005.8 |
| 20260903190106 | 90 | 252 | 3.0 | 7.0 | 0.00 | 0.24 | 0.24 | 62 | 1006.2 |
| 20260903184640 | 91 | 284 | 4.0 | 9.0 | 0.00 | 0.24 | 0.24 | 63 | 1006.4 |
| 20260903183044 | 91 | 199 | 3.0 | 8.0 | 0.00 | 0.24 | 0.24 | 65 | 1006.3 |
| 20260903181602 | 90 | 221 | 3.0 | 7.0 | 0.00 | 0.24 | 0.24 | 66 | 1006.3 |
| 20260903180142 | 90 | 175 | 3.0 | 10.0 | 0.00 | 0.24 | 0.24 | 67 | 1006.5 |
| 20260903174652 | 90 | 213 | 4.0 | 8.0 | 0.00 | 0.24 | 0.24 | 69 | 1006.7 |
| 20260903173017 | 90 | 175 | 3.0 | 7.0 | 0.00 | 0.24 | 0.24 | 68 | 1007.1 |
| 20260903171609 | 89 | 241 | 3.0 | 6.0 | 0.00 | 0.24 | 0.24 | 68 | 1007.2 |
| 20260903170010 | 88 | 220 | 2.0 | 6.0 | 0.00 | 0.24 | 0.24 | 70 | 1007.4 |
| 20260903164603 | 87 | 191 | 3.0 | 7.0 | 0.00 | 0.24 | 0.24 | 72 | 1007.6 |
| 20260903163138 | 87 | 210 | 3.0 | 8.0 | 0.00 | 0.24 | 0.24 | 75 | 1007.7 |
| 20260903161528 | 87 | 213 | 1.0 | 6.0 | 0.00 | 0.24 | 0.24 | 75 | 1007.9 |
| 20260903160104 | 86 | 219 | 1.0 | 4.0 | 0.00 | 0.24 | 0.24 | 76 | 1007.6 |
| 20260903154536 | 84 | 263 | 1.0 | 5.0 | 0.00 | 0.24 | 0.24 | 74 | 1007.7 |
| 20260903153110 | 84 | 229 | 2.0 | 6.0 | 0.00 | 0.24 | 0.24 | 78 | 1007.8 |
| 20260903151638 | 85 | 194 | 3.0 | 7.0 | 0.00 | 0.24 | 0.24 | 77 | 1007.8 |
| 20260903150029 | 83 | 233 | 2.0 | 5.0 | 0.00 | 0.24 | 0.24 | 80 | 1007.7 |
| 20260903144522 | 82 | 208 | 3.0 | 5.0 | 0.00 | 0.24 | 0.24 | 80 | 1007.8 |
| 20260903143100 | 82 | 162 | 2.0 | 5.0 | 0.00 | 0.24 | 0.24 | 82 | 1007.8 |
| 20260903141607 | 81 | 221 | 2.0 | 6.0 | 0.00 | 0.24 | 0.24 | 82 | 1007.9 |
| 20260903140038 | 79 | 227 | 1.0 | 3.0 | 0.00 | 0.24 | 0.24 | 85 | 1007.9 |
| 20260903134607 | 79 | 210 | 0.0 | 4.0 | 0.00 | 0.24 | 0.24 | 86 | 1007.9 |
| 20260903133141 | 78 | 213 | 1.0 | 3.0 | 0.00 | 0.24 | 0.24 | 86 | 1007.8 |
| 20260903131654 | 78 | 250 | 0.0 | 4.0 | 0.00 | 0.24 | 0.24 | 87 | 1007.9 |
| 20260903130058 | 77 | 157 | 1.0 | 4.0 | 0.00 | 0.24 | 0.24 | 90 | 1008.1 |
| 20260903124506 | 75 | 141 | 2.0 | 4.0 | 0.00 | 0.24 | 0.24 | 92 | 1008.2 |
| 20260903123058 | 74 | 175 | 0.0 | 2.0 | 0.00 | 0.24 | 0.24 | 94 | 1008.3 |
| 20260903121644 | 73 | 208 | 0.0 | 0.0 | 0.00 | 0.24 | 0.24 | 94 | 1008.2 |
| 20260903120150 | 72 | 208 | 0.0 | 0.0 | 0.01 | 0.24 | 0.24 | 94 | 1008.3 |
| 20260903114551 | 71 | 208 | 0.0 | 0.0 | 0.01 | 0.24 | 0.24 | 93 | 1008.2 |
| 20260903113145 | 71 | 208 | 0.0 | 2.0 | 0.24 | 0.24 | 0.24 | 92 | 1008.0 |
| 20260903111652 | 72 | 232 | 0.0 | 3.0 | 0.24 | 0.24 | 0.24 | 92 | 1008.1 |
| 20260903110155 | 74 | 45 | 0.0 | 4.0 | 0.23 | 0.23 | 0.23 | 90 | 1007.8 |
| 20260903104531 | 75 | 302 | 2.0 | 39.0 | 0.23 | 0.23 | 0.23 | 80 | 1007.4 |
| 20260903103111 | 73 | 42 | 3.0 | 7.0 | 0.00 | 0.00 | 0.00 | 92 | 1007.6 |
| 20260903101638 | 72 | 141 | 0.0 | 0.0 | 0.00 | 0.00 | 0.00 | 92 | 1007.3 |
| 20260903100025 | 72 | 141 | 0.0 | 0.0 | 0.00 | 0.00 | 0.00 | 91 | 1007.3 |